Disclaimer

Please do not use the information listed here in-flight or in-navigation, as they are not provided to us by the airports but are provided by volunteers, so they might be outdated.

Search


Regions


Airport information page

Radio informations:
RDO - 118.8 MHz

Airport informations:
Latitude: 38° 48' 44.00" N
Longitude: 139° 47' 14.00" E
Elevation: 86 feet - 26 meters
Operating hours: Remarks
Operating agency: Civil government, landing fees and diplomatic clearance may be required
Timezone: UTC+9
Fuel: N/A

Runway information:
09/27 - 6560 x 150 feet< - >1999 x 46 meters

Recent METARs:
RJSY 171233Z 29025G39KT 8000 R09/2000N -SHSN FEW008 SCT015 BKN025 00/M02 Q1011 RMK 1ST008 3CU015 6CU025 A2986
RJSY 171233Z 29025G39KT 8000 R09/2000N -SHSN FEW008 SCT015 BKN025 00/M02 Q1011 RMK 1ST008 3CU015 6CU025 A2986
RJSY 171233Z 29025G39KT 8000 R09/2000N -SHSN FEW008 SCT015 BKN025 00/M02 Q1011 RMK 1ST008 3CU015 6CU025 A2986

Airport on the map: